Date String (YYYY-MM-DD hh:mm:ss) UTC,Instrument flags,Ambient pressure (hPa),Sample flow (lpm),Bypass flow (lpm),Sample temperature (°C),Ambient temperature (°C),ASC tube jacket temperature (°C),LED temperature (°C),Box temperature (°C),Sample RH (%),Span deviation,Mass concentration (μg/m³),Mass concentration (μg/m³),Mass concentration (μg/m³)
DateTimeUTC,F1_M11,P_M11,Q1_M11,Q2_M11,T1_M11,T2_M11,T3_M11,T4_M11,T5_M11,U1_M11,ZSPAN_M11,X0_M11,X2_M11,X1_M11
2022-04-11 14:00:00,,0817.2,5.00,0.00,22.8,21.8,00.0,31.7,24.4,06.7,0000.0,0010.71,0003.89,0002.09
2022-04-11 14:01:00,,0817.2,5.00,0.00,22.7,21.7,00.0,31.7,24.4,06.8,0000.0,0011.34,0003.92,0002.11
2022-04-11 14:02:00,,0817.2,5.00,0.00,22.7,21.7,00.0,31.7,24.3,06.7,0000.0,0011.13,0003.84,0002.10
2022-04-11 14:03:00,,0817.2,5.00,0.00,22.6,21.6,00.0,31.7,24.2,06.7,0000.0,0010.98,0003.83,0002.09
2022-04-11 14:04:00,,0817.2,5.00,0.00,22.6,21.6,00.0,31.7,24.2,06.9,0000.0,0010.60,0003.81,0002.08
2022-04-11 14:05:00,,0817.4,5.01,0.00,22.5,21.5,00.0,31.6,24.2,07.0,0000.0,0010.50,0003.76,0002.07
2022-04-11 14:06:00,,0817.4,4.99,0.00,22.5,21.5,00.0,31.6,24.2,07.0,0000.0,0010.98,0003.73,0002.07
2022-04-11 14:07:00,,0817.3,5.00,0.00,22.5,21.5,00.0,31.6,24.1,07.0,0000.0,0011.31,0003.78,0002.06
2022-04-11 14:08:00,,0817.4,5.01,0.00,22.4,21.4,00.0,31.6,24.1,07.1,0000.0,0011.32,0003.73,0002.05
2022-04-11 14:09:00,,0817.4,5.01,0.00,22.4,21.4,00.0,31.5,24.0,07.1,0000.0,0011.87,0003.72,0002.05
2022-04-11 14:10:00,,0817.4,5.00,0.00,22.4,21.4,00.0,31.5,24.0,07.4,0000.0,0011.57,0003.67,0002.02
2022-04-11 14:11:00,,0817.4,5.00,0.00,22.4,21.4,00.0,31.5,24.0,07.1,0000.0,0011.49,0003.67,0002.01
2022-04-11 14:12:00,,0817.3,5.01,0.00,22.3,21.4,00.0,31.5,24.0,07.2,0000.0,0011.16,0003.65,0002.01
2022-04-11 14:13:00,,0817.3,4.99,0.00,22.3,21.3,00.0,31.5,23.9,07.3,0000.0,0011.61,0003.68,0002.01
2022-04-11 14:14:00,,0817.3,5.00,0.00,22.2,21.2,00.0,31.4,23.9,07.1,0000.0,0011.76,0003.72,0002.03
2022-04-11 14:15:00,,0817.4,5.00,0.00,22.2,21.2,00.0,31.4,23.8,07.3,0000.0,0012.78,0003.71,0002.02
2022-04-11 14:16:00,,0817.3,5.00,0.00,22.2,21.2,00.0,31.4,23.8,07.6,0000.0,0012.73,0003.73,0002.02
2022-04-11 14:17:00,,0817.3,5.00,0.00,22.2,21.2,00.0,31.4,23.8,07.2,0000.0,0012.30,0003.74,0002.02
2022-04-11 14:18:00,,0817.4,4.99,0.00,22.1,21.2,00.0,31.3,23.7,07.3,0000.0,0011.86,0003.70,0002.02
2022-04-11 14:19:00,,0817.3,5.01,0.00,22.1,21.1,00.0,31.3,23.7,08.0,0000.0,0011.82,0003.71,0002.00
2022-04-11 14:20:00,,0817.3,5.00,0.00,22.1,21.3,00.0,31.3,23.7,08.8,0000.0,0011.09,0003.71,0001.97
2022-04-11 14:21:00,,0817.4,5.01,0.00,22.2,22.5,00.0,31.3,24.1,08.9,0000.0,0010.75,0003.69,0001.96
2022-04-11 14:22:00,,0817.3,4.99,0.00,22.4,23.4,00.0,31.4,24.4,08.9,0000.0,0010.66,0003.67,0001.96
2022-04-11 14:23:00,,0817.4,5.00,0.00,22.4,23.1,00.0,31.4,24.3,08.8,0000.0,0010.66,0003.66,0001.97
2022-04-11 14:24:00,,0817.4,4.99,0.00,22.4,22.7,00.0,31.4,24.2,08.9,0000.0,0010.16,0003.67,0001.96
2022-04-11 14:25:00,,0817.3,5.01,0.00,22.3,22.4,00.0,31.4,24.1,09.2,0000.0,0009.94,0003.60,0001.94
2022-04-11 14:26:00,,0817.2,5.00,0.00,22.3,22.0,00.0,31.3,23.9,08.9,0000.0,0009.24,0003.56,0001.93
2022-04-11 14:27:00,,0817.1,5.00,0.00,22.2,21.8,00.0,31.3,23.9,09.0,0000.0,0007.78,0003.51,0001.95
2022-04-11 14:28:00,,0817.1,4.99,0.00,22.2,21.7,00.0,31.3,23.9,09.4,0000.0,0007.58,0003.46,0001.95
2022-04-11 14:29:00,,0817.0,5.00,0.00,22.2,21.6,00.0,31.3,23.9,09.0,0000.0,0007.40,0003.41,0001.97
2022-04-11 14:30:00,,0817.1,5.00,0.00,22.2,21.5,00.0,31.3,23.9,09.3,0000.0,0007.72,0003.41,0002.00
2022-04-11 14:31:00,,0817.0,5.00,0.00,22.2,21.5,00.0,31.3,23.9,09.4,0000.0,0008.07,0003.43,0002.05
2022-04-11 14:32:00,,0817.0,5.01,0.00,22.2,21.5,00.0,31.3,23.9,09.4,0000.0,0007.96,0003.40,0002.08
2022-04-11 14:33:00,,0816.9,4.99,0.00,22.2,21.5,00.0,31.3,23.9,09.3,0000.0,0007.87,0003.38,0002.10
2022-04-11 14:34:00,,0817.4,5.01,0.00,22.2,21.5,00.0,31.3,23.9,09.0,0000.0,0007.87,0003.38,0002.10
2022-04-11 14:35:00,,0816.9,4.99,0.00,22.2,21.5,00.0,31.3,24.0,08.2,0000.0,0007.88,0003.40,0002.12
2022-04-11 14:36:00,,0816.8,4.99,0.00,22.2,21.5,00.0,31.3,24.0,08.8,0000.0,0008.17,0003.40,0002.14
2022-04-11 14:37:00,,0816.8,5.00,0.00,22.2,21.5,00.0,31.2,24.0,08.2,0000.0,0008.37,0003.40,0002.15
2022-04-11 14:38:00,,0816.8,5.00,0.00,22.2,21.5,00.0,31.2,24.0,07.6,0000.0,0008.96,0003.45,0002.15
2022-04-11 14:39:00,,0816.8,5.01,0.00,22.2,21.5,00.0,31.2,23.9,07.3,0000.0,0009.13,0003.50,0002.17
2022-04-11 14:40:00,,0816.8,4.99,0.00,22.2,21.4,00.0,31.2,23.9,07.1,0000.0,0009.33,0003.57,0002.15
2022-04-11 14:41:00,,0816.8,5.00,0.00,22.1,21.4,00.0,31.2,23.8,07.8,0000.0,0009.06,0003.59,0002.15
2022-04-11 14:42:00,,0816.7,5.00,0.00,22.1,21.3,00.0,31.2,23.8,07.8,0000.0,0008.78,0003.58,0002.14
2022-04-11 14:43:00,,0816.7,4.99,0.00,22.1,21.3,00.0,31.2,23.8,07.7,0000.0,0008.83,0003.59,0002.14
2022-04-11 14:44:00,,0816.7,4.99,0.00,22.0,21.2,00.0,31.2,23.7,08.1,0000.0,0008.97,0003.62,0002.15
2022-04-11 14:45:00,,0816.7,5.00,0.00,22.0,21.1,00.0,31.2,23.7,08.0,0000.0,0009.03,0003.67,0002.15
2022-04-11 14:46:00,,0816.6,5.02,0.00,22.0,21.1,00.0,31.1,23.7,08.1,0000.0,0008.92,0003.70,0002.15
2022-04-11 14:47:00,,0816.7,5.00,0.00,22.0,21.1,00.0,31.1,23.7,07.6,0000.0,0008.71,0003.73,0002.15
2022-04-11 14:48:00,,0816.6,5.00,0.00,22.0,21.1,00.0,31.1,23.7,07.9,0000.0,0008.68,0003.78,0002.15
2022-04-11 14:49:00,,0816.6,5.00,0.00,22.0,21.1,00.0,31.1,23.7,08.2,0000.0,0008.36,0003.77,0002.15
2022-04-11 14:50:00,,0816.6,5.00,0.00,22.0,21.1,00.0,31.1,23.7,08.3,0000.0,0008.57,0003.84,0002.14
2022-04-11 14:51:00,,0816.5,5.00,0.00,22.0,21.1,00.0,31.1,23.6,08.6,0000.0,0008.62,0003.84,0002.15
2022-04-11 14:52:00,,0816.5,5.00,0.00,21.9,21.1,00.0,31.1,23.6,08.3,0000.0,0008.65,0003.79,0002.16
2022-04-11 14:53:00,,0816.5,5.00,0.00,21.9,21.1,00.0,31.0,23.6,08.4,0000.0,0009.10,0003.79,0002.17
2022-04-11 14:54:00,,0816.5,5.00,0.00,21.9,21.1,00.0,31.0,23.6,08.7,0000.0,0009.53,0003.81,0002.18
2022-04-11 14:55:00,,0816.5,4.99,0.00,21.9,21.1,00.0,31.0,23.7,08.4,0000.0,0009.89,0003.81,0002.17
2022-04-11 14:56:00,,0816.5,5.00,0.00,21.9,21.1,00.0,31.0,23.7,08.6,0000.0,0009.69,0003.72,0002.17
2022-04-11 14:57:00,,0816.5,5.00,0.00,21.9,21.1,00.0,31.0,23.6,08.3,0000.0,0009.73,0003.64,0002.17
2022-04-11 14:58:00,,0816.5,5.00,0.00,21.9,21.1,00.0,31.0,23.6,07.7,0000.0,0010.15,0003.66,0002.18
2022-04-11 14:59:00,,0816.4,5.00,0.00,21.9,21.1,00.0,31.0,23.6,07.4,0000.0,0010.29,0003.62,0002.18
